This demonstration page uses our WeatherBlox Daily Observations layout. Learn more.

Left ArrowRight Arrow

39.92423, -83.80882

Hourly Observations for July 11, 2021

Temp ( °F °C ) Dew Point ( °F °C ) Humidity (%) Winds ( mph kmh ) Pressure ( in mb ) Visibility ( mi km ) Precip ( " mm )
2:56 am 02:56 Mostly Cloudy 66 19 N/A N/A E 10 17 29.89 1012 10 16 0.00 0.00
3:56 am 03:56 Cloudy with Light Rain 66 19 N/A N/A ESE 10 17 29.87 1011 10 16 0.10 2.54
4:34 am 04:34 Cloudy 68 20 N/A N/A SE 10 17 29.85 1011 10 16 0.00 0.00
4:42 am 04:42 Cloudy 68 20 N/A N/A ESE 12 19 29.84 1011 10 16 0.00 0.00
4:56 am 04:56 Cloudy 68 20 N/A N/A SE 7 11 29.85 1011 10 16 0.00 0.00
5:38 am 05:38 Cloudy 70 21 N/A N/A SSE 9 15 29.84 1010 10 16 N/A
5:46 am 05:46 Cloudy 70 21 N/A N/A SSE 9 15 29.84 1010 10 16 N/A
5:56 am 05:56 Cloudy 70 21 N/A N/A SSE 7 11 29.86 1011 10 16 N/A
6:56 am 06:56 Cloudy 70 21 N/A N/A SSE 7 11 29.87 1011 10 16 N/A
7:34 am 07:34 Cloudy 70 21 N/A N/A SE 7 11 29.85 1011 10 16 N/A
7:56 am 07:56 Cloudy with Light Rain 70 21 N/A N/A SE 6 9 29.87 1012 10 16 0.00 0.00
8:27 am 08:27 Cloudy with Light Rain 68 20 N/A N/A SSE 3 6 29.87 1012 10 16 0.06 1.52
8:56 am 08:56 Cloudy 70 21 N/A N/A SSE 6 9 29.87 1012 10 16 0.06 1.52
9:35 am 09:35 Cloudy with Light Rain 70 21 N/A N/A SSE 10 17 29.86 1011 10 16 0.04 1.02
9:51 am 09:51 Cloudy with Light Rain 68 20 N/A N/A SSE 8 13 29.86 1011 9 14 0.04 1.02
9:56 am 09:56 Cloudy with Light Rain 68 20 N/A N/A S 8 13 29.88 1012 9 14 0.04 1.02
10:56 am 10:56 Cloudy with Light Rain 68 20 N/A N/A S 6 9 29.90 1013 6 10 0.13 3.30
11:56 am 11:56 Cloudy 72 22 N/A N/A SSW 7 11 29.91 1013 10 16 0.00 0.00
12:53 pm 12:53 Cloudy 73 23 N/A N/A S 8 13 29.88 1012 10 16 N/A
12:56 pm 12:56 Cloudy 73 23 N/A N/A VRB 7 11 29.91 1013 10 16 N/A
1:56 pm 13:56 Cloudy 75 24 N/A N/A SW 9 15 29.91 1013 10 16 N/A
2:26 pm 14:26 Mostly Cloudy 75 24 75 24 100 100 SW 7 11 29.88 1012 10 16 N/A
2:31 pm 14:31 Mostly Cloudy 75 24 75 24 100 100 SW 8 13 29.88 1012 10 16 N/A
2:43 pm 14:43 Mostly Cloudy 75 24 75 24 100 100 WSW 6 9 29.88 1012 10 16 N/A
2:56 pm 14:56 Mostly Cloudy 76 24.4 74 23.3 94 94 WSW 9 15 29.90 1013 10 16 N/A
3:56 pm 15:56 Cloudy 77 25 74 23.3 90 90 SW 10 17 29.90 1013 10 16 N/A
4:56 pm 16:56 Cloudy with Light Rain 77 25 75 23.9 94 94 NW 6 9 29.90 1012 10 16 0.00 0.00
5:20 pm 17:20 Partly Cloudy 79 26 75 24 89 89 W 9 15 29.86 1011 10 16 0.01 0.25
5:56 pm 17:56 Partly Cloudy 77 25 76 24.4 96 96 W 6 9 29.91 1013 10 16 0.01 0.25
6:24 pm 18:24 Mostly Cloudy 79 26 75 24 89 89 WSW 7 11 29.87 1012 10 16 N/A
6:46 pm 18:46 Partly Cloudy 79 26 72 22 79 79 W 8 13 29.87 1012 10 16 N/A
6:56 pm 18:56 Mostly Cloudy 79 26.1 73 22.8 82 82 W 7 11 29.91 1013 10 16 N/A
7:26 pm 19:26 Partly Cloudy 77 25 73 23 89 89 WNW 7 11 29.87 1012 10 16 N/A
7:56 pm 19:56 Sunny 76 24.4 73 22.8 91 91 NW 8 13 29.91 1013 10 16 N/A
8:56 pm 20:56 Sunny 73 22.8 73 22.8 100 100 NNW 3 6 29.93 1014 10 16 N/A
9:56 pm 21:56 Partly Cloudy 70 21 N/A N/A ESE 3 6 29.95 1014 10 16 N/A
10:56 pm 22:56 Mostly Cloudy 72 22 N/A N/A N N/A 29.96 1015 10 16 N/A
11:53 pm 23:53 Cloudy with Mist and Fog 70 21 N/A N/A N N/A 29.96 1014 2 2 N/A
11:56 pm 23:56 Cloudy with Mist and Fog 70 21 N/A N/A N N/A 29.98 1015 1 2 N/A

Powered by AerisWeather